FW2600 Weather Reports


time (UTC)temp
C
wind
direction
speed
KPH
gust
KPH
rain 1hr
cm
rain 24hr
cm
rain mn
cm
humidity
%
barometer
mb
20260506174859 21 0.0 0.0 0.00 0.00 0.00 14 999.3
20260506173909 21 0.0 0.0 0.00 0.00 0.00 14 999.3
20260506172959 21 0.0 0.0 0.00 0.00 0.00 14 999.4
20260506171828 21 0.0 0.0 0.00 0.00 0.00 14 999.3
20260506170818 22 0.0 0.0 0.00 0.00 0.00 14 999.4
20260506165909 22 0.0 0.0 0.00 0.00 0.00 14 999.5
20260506165019 22 0.0 0.0 0.00 0.00 0.00 14 999.5
20260506163948 23 0.0 0.0 0.00 0.00 0.00 14 999.6
20260506162838 23 0.0 0.0 0.00 0.00 0.00 14 1000.1
20260506161828 23 0.0 0.0 0.00 0.00 0.00 14 1000.1
20260506160838 24 0.0 0.0 0.00 0.00 0.00 14 1000.1
20260506155928 24 0.0 0.0 0.00 0.00 0.00 14 1000.8
20260506154858 24 0.0 0.0 0.00 0.00 0.00 14 1000.8
20260506153848 24 0.0 0.0 0.00 0.00 0.00 14 1000.8
20260506152858 24 0.0 0.0 0.00 0.00 0.00 14 1001.1
20260506151848 24 0.0 0.0 0.00 0.00 0.00 14 1001.2
20260506150817 24 0.0 0.0 0.00 0.00 0.00 14 1001.2
20260506145948 25 0.0 0.0 0.00 0.00 0.00 14 1001.3
20260506144917 25 0.0 0.0 0.00 0.00 0.00 14 1001.4
20260506143827 23 0.0 0.0 0.00 0.00 0.00 14 1001.3
20260506142756 23 0.0 0.0 0.00 0.00 0.00 14 1001.5
20260506141806 23 0.0 0.0 0.00 0.00 0.00 14 1001.5
20260506140736 23 0.0 0.0 0.00 0.00 0.00 14 1001.5
20260506135826 24 0.0 0.0 0.00 0.00 0.00 14 1001.8
20260506134856 23 0.0 0.0 0.00 0.00 0.00 14 1001.8
20260506133746 23 0.0 0.0 0.00 0.00 0.00 14 1001.8
20260506132736 23 0.0 0.0 0.00 0.00 0.00 14 1002.1
20260506131846 23 0.0 0.0 0.00 0.00 0.00 14 1002.2
20260506130736 23 0.0 0.0 0.00 0.00 0.00 14 1002.2
20260506125806 24 0.0 0.0 0.00 0.00 0.00 14 1002.3
20260506124816 25 0.0 0.0 0.00 0.00 0.00 14 1002.4
20260506123746 25 0.0 0.0 0.00 0.00 0.00 14 1002.4
20260506122756 26 0.0 0.0 0.00 0.00 0.00 14 1002.8
20260506121726 25 0.0 0.0 0.00 0.00 0.00 14 1002.8
20260506120736 25 0.0 0.0 0.00 0.00 0.00 14 1002.8
20260506115706 26 0.0 0.0 0.00 0.00 0.00 14 1003.0
20260506114656 25 0.0 0.0 0.00 0.00 0.00 14 1002.9
20260506113726 26 0.0 0.0 0.00 0.00 0.00 14 1003.0
20260506112716 25 0.0 0.0 0.00 0.00 0.00 14 1003.4
20260506111726 25 0.0 0.0 0.00 0.00 0.00 14 1003.4
20260506110616 25 0.0 0.0 0.00 0.00 0.00 14 1003.4
20260506104656 23 0.0 0.0 0.00 0.00 0.00 14 1003.6
20260506103726 23 0.0 0.0 0.00 0.00 0.00 14 1003.5
20260506102636 23 0.0 0.0 0.00 0.00 0.00 14 1003.5
20260506101605 24 0.0 0.0 0.00 0.00 0.00 14 1003.5
20260506100435 24 0.0 0.0 0.00 0.00 0.00 14 1003.9
20260506095625 23 0.0 0.0 0.00 0.00 0.00 14 1003.9
20260506094415 23 0.0 0.0 0.00 0.00 0.00 14 1003.9
20260506093445 22 0.0 0.0 0.00 0.00 0.00 14 1003.8
20260506092234 22 0.0 0.0 0.00 0.00 0.00 14 1003.8
20260506091304 22 0.0 0.0 0.00 0.00 0.00 14 1003.8
20260506090134 21 0.0 0.0 0.00 0.00 0.00 14 1003.9
20260506085224 21 0.0 0.0 0.00 0.00 0.00 14 1003.9
20260506084053 20 0.0 0.0 0.00 0.00 0.00 14 1003.9
20260506083043 19 0.0 0.0 0.00 0.00 0.00 14 1003.8
20260506081953 19 0.0 0.0 0.00 0.00 0.00 14 1003.8
20260506080843 19 0.0 0.0 0.00 0.00 0.00 14 1003.9
20260506072700 17 0.0 0.0 0.00 0.00 0.00 25 1003.8
20260506071631 17 0.0 0.0 0.00 0.00 0.00 26 1003.7
20260506070539 16 0.0 0.0 0.00 0.00 0.00 26 1003.5
20260506062355 15 0.0 0.0 0.00 0.00 0.00 32 1003.8
20260506061403 14 0.0 0.0 0.00 0.00 0.00 31 1003.7
20260506060313 14 0.0 0.0 0.00 0.00 0.00 31 1003.4
20260506050736 12 0.0 0.0 0.00 0.00 0.00 27 1003.1
20260506044654 12 0.0 0.0 0.00 0.00 0.00 14 1003.1
20260506043722 12 0.0 0.0 0.00 0.00 0.00 14 1003.1
20260506042530 12 0.0 0.0 0.00 0.00 0.00 14 1002.8
20260506041419 12 0.0 0.0 0.00 0.00 0.00 14 1002.8
20260506040407 12 0.0 0.0 0.00 0.00 0.00 14 1002.8
20260506035355 12 0.0 0.0 0.00 0.00 0.00 14 1002.8
20260506034244 12 0.0 0.0 0.00 0.00 0.00 14 1002.8
20260506033152 12 0.0 0.0 0.00 0.00 0.00 14 1002.5
20260506032040 12 0.0 0.0 0.00 0.00 0.00 14 1002.5
20260506031009 13 0.0 0.0 0.00 0.00 0.00 14 1002.6
20260506025937 13 0.0 0.0 0.00 0.00 0.00 14 1002.8
20260506024805 13 0.0 0.0 0.00 0.00 0.00 14 1002.8
20260506023733 13 0.0 0.0 0.00 0.00 0.00 14 1002.8
20260506022621 13 0.0 0.0 0.00 0.00 0.00 14 1002.8
20260506021650 13 0.0 0.0 0.00 0.00 0.00 14 1002.8
20260506020518 13 0.0 0.0 0.00 0.00 0.00 14 1002.1
20260506015446 13 0.0 0.0 0.00 0.00 0.00 14 1002.1
20260506014435 14 0.0 0.0 0.00 0.00 0.00 14 1002.1
20260506013223 14 0.0 0.0 0.00 0.00 0.00 14 1002.1
20260506012332 14 0.0 0.0 0.00 0.00 0.00 14 1002.1
20260506011400 14 0.0 0.0 0.00 0.00 0.00 14 1002.1
20260506010328 15 0.0 0.0 0.00 0.00 0.00 14 1001.9
20260506005236 15 0.0 0.0 0.00 0.00 0.00 14 1001.9
20260506004125 15 0.0 0.0 0.00 0.00 0.00 14 1001.9
20260506003113 15 0.0 0.0 0.00 0.00 0.00 14 1002.0
20260506002040 15 0.0 0.0 0.00 0.00 0.00 14 1001.9
20260506000947 15 0.0 0.0 0.00 0.00 0.00 14 1001.9
20260505235956 15 0.0 0.0 0.00 0.00 0.00 14 1001.6
20260505234923 15 0.0 0.0 0.00 0.00 0.00 14 1001.6
20260505234010 15 0.0 0.0 0.00 0.00 0.00 14 1001.6
20260505232956 15 0.0 0.0 0.00 0.00 0.00 14 1001.6
20260505232002 15 0.0 0.0 0.00 0.00 0.00 14 1001.4
20260505231048 15 0.0 0.0 0.00 0.00 0.00 14 1001.4
20260505230016 15 0.0 0.0 0.00 0.00 0.00 14 1001.3
20260505224941 15 0.0 0.0 0.00 0.00 0.00 14 1001.3
20260505223847 16 0.0 0.0 0.00 0.00 0.00 14 1001.3
20260505222952 16 0.0 0.0 0.00 0.00 0.00 14 1001.2
20260505221817 16 0.0 0.0 0.00 0.00 0.00 14 1001.1
20260505220903 16 0.0 0.0 0.00 0.00 0.00 14 1001.1
20260505214813 16 0.0 0.0 0.00 0.00 0.00 14 1001.2
20260505213718 16 0.0 0.0 0.00 0.00 0.00 14 1001.2
20260505212824 16 0.0 0.0 0.00 0.00 0.00 14 1001.4
20260505211749 16 0.0 0.0 0.00 0.00 0.00 14 1001.2
20260505210632 16 0.0 0.0 0.00 0.00 0.00 14 1001.3
20260505205616 16 0.0 0.0 0.00 0.00 0.00 14 1001.2
20260505204701 16 0.0 0.0 0.00 0.00 0.00 14 1001.0
20260505203644 17 0.0 0.0 0.00 0.00 0.00 14 1001.1
20260505202648 17 0.0 0.0 0.00 0.00 0.00 14 1001.1
20260505200658 17 0.0 0.0 0.00 0.00 0.00 14 1001.0
20260505195641 17 0.0 0.0 0.00 0.00 0.00 14 1000.9
20260505194625 17 0.0 0.0 0.00 0.00 0.00 14 1000.9
20260505193710 18 0.0 0.0 0.00 0.00 0.00 14 1000.9
20260505192653 18 0.0 0.0 0.00 0.00 0.00 14 1001.0
20260505191657 18 0.0 0.0 0.00 0.00 0.00 14 1001.1
20260505190620 18 0.0 0.0 0.00 0.00 0.00 14 1001.1
20260505185825 18 0.0 0.0 0.00 0.00 0.00 14 1000.9
20260505184647 19 0.0 0.0 0.00 0.00 0.00 14 1000.8
20260505183711 20 0.0 0.0 0.00 0.00 0.00 14 1000.9
20260505182714 20 0.0 0.0 0.00 0.00 0.00 14 1001.0
20260505181650 20 0.0 0.0 0.00 0.00 0.00 14 1000.9
20260505180649 20 0.0 0.0 0.00 0.00 0.00 14 1000.9
20260505175810 21 0.0 0.0 0.00 0.00 0.00 14 1000.7